星链-4349 (STARLINK-4349 )

导读 | 豆包AI

STARLINK-4349是美国太空探索技术公司(SpaceX)星链星座的卫星,于2022年7月11日发射升空,属于星链v2.0 mini平台。该卫星运行在近地轨道,轨道倾角53.157°,近地点约474公里,远地点约476公里,轨道周期约94.1分钟。作为全球低轨卫星互联网星座的组成部分,它为偏远地区提供高速互联网接入,同时也参与部分应急和军事通信任务,目前仍在轨正常工作。

Basic Information
目录编号:
53044
目录名称:
STARLINK-4349
国际标识:
2022-077B
轨道中心:
EARTH
卫星名称:
星链-4349
卫星全名:
星链-4349 (STARLINK-4349 )
卫星状态:
在轨 (已飞行1389 天)
发射日期:
2022-07-11 UTC
国别 :
美国 (US)
星等 :
--
Orbit Information
数据来源 国际轨道数据
星历时间: 2026-04-30T17:41:29+0800
4小时前
查看轨道信息
半长轴: 6586.517km
偏心率: 0.0005308
轨道倾角: 97.563°
近地点辐角 203.891°
升交点赤经 317.133°
平近点角 156.214°
近地点: 204.883km
远地点: 211.877km
周期: 88.663分钟
每日圈数: 16.241235
Detailed Information
固有亮度:
5
最大亮度:
2.5
卫星平台:
Starlink v1.5
覆盖范围:
全球
运营商:
太空探索技术公司
运营商所在国:
美国
制造商(研发单位):
太空探索技术公司
制造商所在国:
美国
使用方式:
暂无
Satellite Introduction
星链(Starlink)计划是由太空探索技术公司(SpaceX)提出的一个巨型低轨卫星互联网星座项目,计划在2019年至2024年间在太空搭建由约1.2万颗卫星组成的“星链”网络,其中1584颗将部署在地球上空550千米处的近地轨道,并从2020年开始工作。该卫星仍在工作。
2D Orbit Map
3D Orbit Map
Orbit Altitude Analysis Chart
Orbit Inclination Analysis Chart
Orbit Comprehensive Analysis Chart
View Comprehensive Chart